Location: Unspecified
(0.0000°N, 0.0000°E)
Time: 06:33:28
(UTC+00:00)

Vanguard 1 - All Passes

Search period start: 19 June 2018 00:00
Search period end: 29 June 2018 00:00
Orbit: 650 x 3833 km, 34.3° (Epoch: 17 June)

Date Brightness Start Highest point End Pass type
(mag) Time Alt. Az. Time Alt. Az. Time Alt. Az.
19 Jun - 02:10:13 10° SSW 02:14:52 40° SE 02:21:53 10° ENE visible
19 Jun - 04:29:49 10° W 04:36:04 37° NNW 04:46:44 10° NE visible
19 Jun - 06:55:07 10° NW 07:02:19 17° N 07:12:05 10° NNE daylight
19 Jun - 09:22:49 10° NNW 09:34:33 18° NNE 09:48:22 10° NE daylight
19 Jun - 11:47:09 10° NNW 12:07:26 37° NNE 12:25:42 10° E daylight
19 Jun - 14:12:31 10° NW 14:36:14 79° NE 14:51:41 10° ESE daylight
19 Jun - 16:43:04 10° WNW 17:00:47 40° SW 17:11:29 10° SSE daylight
20 Jun - 02:30:42 10° SW 02:35:39 70° SE 02:43:39 10° ENE visible
20 Jun - 04:51:40 10° WNW 04:57:49 27° NNW 05:07:34 10° NNE visible
20 Jun - 07:18:32 10° NNW 07:25:19 15° N 07:33:56 10° NNE daylight
20 Jun - 09:44:36 10° NNW 09:58:08 21° NNE 10:13:41 10° ENE daylight
20 Jun - 12:08:14 10° NW 12:29:54 45° NNE 12:48:31 10° E daylight
20 Jun - 14:34:11 10° NW 14:57:46 85° SW 15:12:47 10° SE daylight
20 Jun - 17:06:48 10° W 17:21:56 30° SW 17:31:39 10° SSE daylight
21 Jun - 00:35:23 10° SSE 00:36:43 11° SE 00:38:05 10° SE night (unlit)
21 Jun - 02:51:31 10° WSW 02:56:36 70° NW 03:05:02 10° NE visible
21 Jun - 05:14:04 10° WNW 05:19:51 20° NNW 05:28:14 10° NNE visible
21 Jun - 07:41:48 10° NNW 07:48:34 14° N 07:56:53 10° NNE daylight
21 Jun - 10:05:54 10° NNW 10:21:25 25° NNE 10:38:43 10° ENE daylight
21 Jun - 12:29:20 10° NW 12:52:06 55° NE 13:10:47 10° ESE daylight
21 Jun - 14:56:11 10° WNW 15:19:09 69° SW 15:33:38 10° SE daylight
21 Jun - 17:31:24 10° W 17:43:17 21° SW 17:51:32 10° S daylight
22 Jun - 00:54:09 10° SSW 00:57:37 21° SE 01:01:44 10° E night (unlit)
22 Jun - 03:12:43 10° WSW 03:17:48 43° NNW 03:26:03 10° NE visible
22 Jun - 05:37:04 10° NW 05:42:07 15° NNW 05:48:46 10° NNE visible
22 Jun - 08:04:22 10° NNW 08:12:00 14° N 08:21:19 10° NE daylight
22 Jun - 10:26:57 10° NNW 10:44:22 30° NNE 11:03:08 10° E daylight
22 Jun - 12:50:30 10° NW 13:14:03 68° NE 13:32:37 10° ESE daylight
22 Jun - 15:18:37 10° WNW 15:40:26 55° SW 15:54:19 10° SE daylight
22 Jun - 17:57:11 10° WSW 18:04:54 15° SW 18:10:52 10° S daylight
23 Jun - 01:14:12 10° SSW 01:18:24 40° SE 01:23:52 10° ENE visible
23 Jun - 03:34:20 10° W 03:39:16 28° NNW 03:46:45 10° NNE visible
23 Jun - 06:00:52 10° NNW 06:04:40 12° N 06:09:13 10° NNE daylight
23 Jun - 08:26:04 10° NNW 08:35:25 16° NNE 08:46:53 10° NE daylight
23 Jun - 10:47:52 10° NNW 11:06:57 38° NNE 11:26:48 10° E daylight
23 Jun - 13:11:50 10° NW 13:35:48 81° NE 13:54:05 10° ESE daylight
23 Jun - 15:41:35 10° WNW 16:01:44 43° SW 16:14:48 10° SSE daylight
24 Jun - 01:34:45 10° SW 01:39:14 76° SE 01:45:25 10° ENE visible
24 Jun - 03:56:31 10° WNW 04:00:57 19° NNW 04:07:09 10° NNE visible
24 Jun - 06:25:30 10° N 06:27:29 10° N 06:29:39 10° N daylight
24 Jun - 08:47:13 10° NNW 08:58:41 19° NNE 09:12:48 10° ENE daylight
24 Jun - 11:08:46 10° NW 11:29:13 46° NE 11:49:49 10° ESE daylight
24 Jun - 13:33:24 10° NW 13:57:25 84° SW 14:15:16 10° SE daylight
24 Jun - 16:05:15 10° W 16:23:08 33° SW 16:35:07 10° SSE daylight
24 Jun - 23:38:30 10° S 23:40:08 12° SSE 23:41:43 10° SE night (unlit)
25 Jun - 01:55:43 10° WSW 02:00:11 58° NW 02:06:32 10° NE visible
25 Jun - 04:19:30 10° NW 04:22:52 13° NNW 04:27:02 10° NNE visible
25 Jun - 06:49:32 10° N 06:50:32 10° N 06:51:33 10° NNE daylight
25 Jun - 09:08:04 10° NNW 09:21:37 24° NNE 09:38:19 10° ENE daylight
25 Jun - 11:29:41 10° NW 11:51:15 57° NE 12:12:15 10° ESE daylight
25 Jun - 13:55:17 10° WNW 14:18:56 69° SW 14:36:13 10° SE daylight
25 Jun - 16:29:46 10° W 16:44:45 25° SW 16:55:16 10° SSE daylight
25 Jun - 23:57:38 10° SSW 00:01:11 22° SE 00:04:50 10° E night (unlit)
26 Jun - 02:17:05 10° W 02:21:20 33° NNW 02:27:16 10° NNE visible
26 Jun - 07:10:03 10° N 07:13:41 11° NNE 07:17:46 10° NNE daylight
26 Jun - 09:28:46 10° NNW 09:44:14 30° NNE 10:03:05 10° E daylight
26 Jun - 11:50:44 10° NW 12:13:06 69° NE 12:34:12 10° ESE daylight
26 Jun - 14:17:36 10° WNW 14:40:25 56° SW 14:56:59 10° SE daylight
26 Jun - 16:55:16 10° WSW 17:06:40 18° SSW 17:15:11 10° S daylight
27 Jun - 00:17:51 10° SW 00:22:07 42° SE 00:26:42 10° ENE night (unlit)
27 Jun - 02:39:01 10° WNW 02:42:43 20° NNW 02:47:34 10° NNE visible
27 Jun - 07:30:21 10° N 07:36:47 13° NNE 07:44:32 10° NE daylight
27 Jun - 09:49:26 10° NNW 10:06:31 37° NE 10:27:02 10° E daylight
27 Jun - 12:11:56 10° NW 12:34:50 83° NE 12:55:47 10° SE daylight
27 Jun - 14:40:27 10° WNW 15:01:58 44° SW 15:17:36 10° SSE daylight
27 Jun - 17:21:58 10° SW 17:28:55 13° SSW 17:34:37 10° S daylight
28 Jun - 00:38:33 10° SW 00:43:00 87° SE 00:48:00 10° NE night (unlit)
28 Jun - 03:01:55 10° NW 03:04:19 13° NNW 03:07:07 10° N visible
28 Jun - 07:50:38 10° N 07:59:40 17° NNE 08:11:09 10° ENE daylight
28 Jun - 10:10:08 10° NNW 10:28:31 46° NE 10:50:16 10° ESE daylight
28 Jun - 12:33:23 10° NW 12:56:30 83° SW 13:17:05 10° SE daylight
28 Jun - 15:03:58 10° W 15:23:41 35° SW 15:38:05 10° SSE daylight
28 Jun - 22:40:42 10° S 22:43:37 15° SSE 22:46:14 10° ESE night (unlit)
